Location: Baia Mare
(47.6567°N, 23.5850°E)
Time: 19:42:46
(UTC+03:00)

ISS - Pass Details

Date: 02 October 2018
Orbit: 403 x 408 km, 51.6° (Epoch: 23 October)

Event Time Altitude Azimuth Distance (km) Brightness Sun altitude
Rises 20:47:35 0° 287° (WNW) 2,340 1.8 -18.2°
Reaches altitude 10° 20:49:45 10° 295° (WNW) 1,478 0.2 -18.6°
Maximum altitude 20:52:56 43° 8° (N) 588 -3.0 -19.1°
Enters shadow 20:53:15 42° 26° (NNE) 603 -3.1 -19.1°
